Tracking 17150 objects as of 4-August-2015
HD Live streaming from Space Station

SL-16 DEB

Track SL-16 DEB now!
10-day predictions
SL-16 DEB is classified as:


NORAD ID: 24303
Int'l Code: 1996-051G
Perigee: 820.6 km
Apogee: 926.1 km
Inclination: 71.1 °
Period: 102.3 minutes
Semi major axis: 7244 km
RCS: 0.4797 m2 (medium)
Launch date: September 4, 1996
Source: Commonwealth of Independent States (former USSR) (CIS)

Note: This is SATELLITE DEBRIS
Your satellite tracking list
Your tracking list is empty





NASA's NSSDC Master Catalog

Two Line Element Set (TLE):
1 24303U 96051G   15214.68535131  .00000203  00000-0  14310-3 0  9995
2 24303 071.1081 313.6619 0072827 276.1574 187.8142 14.08008247971887

Source of the keplerian elements: AFSPC

N2YO: 352